DW6554 Weather Reports


Display with metric or nautical units.
time (UTC)temp
F
wind
direction
speed
MPH
gust
MPH
rain 1hr
in
rain 24hr
in
rain mn
in
humidity
%
barometer
mb
20171123235711 30 0.0 0.0 0.00 0.00 0.00 72 1017.0
20171123234206 30 0.0 0.0 0.00 0.00 0.00 65 1017.0
20171123232716 31 0.0 0.0 0.00 0.00 0.00 63 1017.0
20171123231211 31 0.0 0.0 0.00 0.00 0.00 63 1017.0
20171123225710 32 0.0 0.0 0.00 0.00 0.00 61 1017.2
20171123224217 32 0.0 0.0 0.00 0.00 0.00 59 1017.1
20171123222704 33 0.0 0.0 0.00 0.00 0.00 58 1017.2
20171123221203 33 0.0 0.0 0.00 0.00 0.00 58 1017.1
20171123215710 33 0.0 0.0 0.00 0.00 0.00 57 1017.0
20171123214205 34 0.0 0.0 0.00 0.00 0.00 58 1016.9
20171123212722 35 0.0 0.0 0.00 0.00 0.00 60 1016.8
20171123211207 36 0.0 0.0 0.00 0.00 0.00 55 1016.9
20171123205701 37 0.0 0.0 0.00 0.00 0.00 57 1016.8
20171123204200 37 0.0 0.0 0.00 0.00 0.00 57 1016.8
20171123202700 37 0.0 0.0 0.00 0.00 0.00 56 1016.8
20171123201216 38 0.0 0.0 0.00 0.00 0.00 54 1016.7
20171123195706 38 0.0 0.0 0.00 0.01 0.00 51 1016.7
20171123194219 38 0.0 0.0 0.00 0.01 0.00 54 1016.8
20171123192659 38 0.0 0.0 0.00 0.01 0.00 53 1016.9
20171123191207 38 0.0 0.0 0.00 0.01 0.00 55 1017.0
20171123185659 38 0.0 0.0 0.00 0.02 0.00 54 1017.1
20171123184202 37 0.0 0.0 0.00 0.02 0.00 56 1017.3
20171123182659 37 0.0 0.0 0.00 0.02 0.00 54 1017.3
20171123181152 37 0.0 0.0 0.00 0.02 0.00 57 1017.4
20171123175659 37 0.0 0.0 0.00 0.03 0.00 56 1017.3
20171123174200 36 0.0 0.0 0.00 0.03 0.00 56 1017.5
20171123172707 36 0.0 0.0 0.00 0.03 0.00 56 1017.6
20171123171148 36 0.0 0.0 0.00 0.03 0.00 56 1017.8
20171123165646 35 0.0 0.0 0.00 0.11 0.00 59 1017.9
20171123164145 35 0.0 0.0 0.00 0.11 0.00 59 1018.2
20171123162642 34 0.0 0.0 0.00 0.11 0.00 58 1018.4
20171123161157 34 0.0 0.0 0.00 0.11 0.00 60 1018.5
20171123155701 34 0.0 0.0 0.00 0.21 0.00 60 1018.7
20171123154140 33 0.0 0.0 0.00 0.21 0.00 60 1018.8
20171123152656 33 0.0 0.0 0.00 0.21 0.00 63 1018.7
20171123151139 32 0.0 0.0 0.00 0.21 0.00 64 1018.7
20171123145644 32 0.0 0.0 0.00 0.33 0.00 64 1018.6
20171123144140 31 0.0 0.0 0.00 0.33 0.00 66 1018.8
20171123142636 31 0.0 0.0 0.00 0.33 0.00 68 1018.7
20171123141157 30 0.0 0.0 0.00 0.33 0.00 68 1018.5
20171123135647 29 0.0 0.0 0.00 0.42 0.00 69 1018.1
20171123134134 29 0.0 0.0 0.00 0.42 0.00 71 1018.2
20171123132637 29 0.0 0.0 0.00 0.42 0.00 73 1018.7
20171123131131 28 0.0 0.0 0.00 0.42 0.00 75 1018.7
20171123125631 28 0.0 0.0 0.00 0.44 0.00 74 1018.7
20171123124148 28 0.0 0.0 0.00 0.44 0.00 74 1018.6
20171123122629 28 0.0 0.0 0.00 0.44 0.00 76 1018.3
20171123121128 27 0.0 0.0 0.00 0.44 0.00 76 1018.3
20171123115634 27 0.0 0.0 0.00 0.44 0.00 77 1018.1
20171123114131 27 0.0 0.0 0.00 0.44 0.00 77 1018.0
20171123112633 28 0.0 0.0 0.00 0.44 0.00 76 1017.8
20171123111134 28 0.0 0.0 0.00 0.44 0.00 78 1017.8
20171123105622 28 0.0 0.0 0.00 0.44 0.00 78 1018.0
20171123104127 28 0.0 0.0 0.00 0.44 0.00 78 1017.9
20171123102621 28 0.0 0.0 0.00 0.44 0.00 78 1018.1
20171123101121 28 0.0 0.0 0.00 0.44 0.00 78 1018.0
20171123095630 28 0.0 0.0 0.00 0.44 0.00 80 1018.1
20171123094116 28 0.0 0.0 0.00 0.44 0.00 80 1018.3
20171123092615 28 0.0 0.0 0.00 0.44 0.00 79 1018.3
20171123091134 28 0.0 0.0 0.00 0.44 0.00 78 1018.0
20171123085624 29 0.0 0.0 0.00 0.44 0.00 78 1018.1
20171123084107 29 0.0 0.0 0.00 0.44 0.00 78 1017.5
20171123082607 29 0.0 0.0 0.00 0.44 0.00 78 1017.4
20171123081114 29 0.0 0.0 0.00 0.44 0.00 77 1017.2
20171123075606 29 0.0 0.0 0.00 0.44 0.00 76 1016.9
20171123074107 30 0.0 0.0 0.00 0.44 0.00 76 1017.2
20171123072600 30 0.0 0.0 0.00 0.44 0.00 75 1017.3
20171123071057 30 0.0 0.0 0.00 0.44 0.00 76 1017.3
20171123065555 31 0.0 0.0 0.00 0.44 0.00 76 1017.3
20171123064102 31 0.0 0.0 0.00 0.44 0.00 77 1017.0
20171123062606 32 0.0 0.0 0.00 0.44 0.00 76 1017.2
20171123061052 32 0.0 0.0 0.00 0.44 0.00 77 1016.8
20171123055545 32 0.0 0.0 0.00 0.44 0.00 76 1016.7
20171123054044 33 0.0 0.0 0.00 0.44 0.00 74 1016.3
20171123052547 33 0.0 0.0 0.00 0.44 0.00 75 1016.2
20171123051045 34 0.0 0.0 0.00 0.44 0.00 74 1016.3
20171123045540 34 0.0 0.0 0.00 0.44 0.44 75 1016.4
20171123044035 35 0.0 0.0 0.00 0.44 0.44 74 1016.4
20171123042536 35 0.0 0.0 0.00 0.44 0.44 75 1016.2
20171123041040 35 0.0 0.0 0.00 0.44 0.44 75 1015.8
20171123035538 36 0.0 0.0 0.00 0.44 0.44 76 1015.6
20171123034327 36 0.0 0.0 0.00 0.44 0.44 76 1015.7
20171123033457 36 0.0 0.0 0.00 0.44 0.44 76 1015.5
20171123031226 36 0.0 0.0 0.00 0.44 0.44 74 1015.3
20171123025534 36 0.0 0.0 0.00 0.44 0.44 74 1015.1
20171123024030 36 0.0 0.0 0.00 0.44 0.44 74 1014.9
20171123022537 36 0.0 0.0 0.00 0.44 0.44 75 1014.8
20171123021043 36 0.0 0.0 0.00 0.44 0.44 75 1014.6
20171123015527 37 0.0 0.0 0.00 0.44 0.44 74 1014.3
20171123014033 36 0.0 0.0 0.00 0.44 0.44 74 1014.4
20171123012554 36 0.0 0.0 0.00 0.44 0.44 80 1014.3
20171123011027 36 0.0 0.0 0.00 0.44 0.44 80 1014.4
20171123005523 37 0.0 0.0 0.00 0.44 0.44 79 1014.2
20171123004022 37 0.0 0.0 0.00 0.44 0.44 82 1014.2
20171123002523 37 0.0 0.0 0.00 0.44 0.44 83 1013.8
20171123001037 38 0.0 0.0 0.00 0.44 0.44 83 1013.4